Waynesville, MO

6:26 AM CST on February 09, 2016 (GMT -0600)
Waynesville Regional At Forney Field

Weather History for KTBN - May, 2013

Change the Weather History Date:

Friday, May 24, 2013

  Actual Average (KVIH) Record (KVIH)
Temperature  
Mean Temperature 60 °F 66 °F  
Max Temperature 73 °F 76 °F 93 °F (1996)
Min Temperature 48 °F 56 °F 41 °F (2001)
Degree Days  
Heating Degree Days 4 2  
Month to date heating degree days 103  
Since 1 July heating degree days 4821  
Cooling Degree Days 0 3  
Month to date cooling degree days 52  
Year to date cooling degree days 78  
Growing Degree Days 10 (Base 50)    
Moisture  
Dew Point 45 °F    
Average Humidity 68    
Maximum Humidity 100    
Minimum Humidity 26    
Precipitation  
Precipitation 0.00 in 0.15 in 1.64 in (1958)
Month to date precipitation 3.89  
Year to date precipitation 15.66  
Sea Level Pressure  
Sea Level Pressure 30.30 in    
Wind  
Wind Speed 5 mph (ESE)    
Max Wind Speed 10 mph    
Max Gust Speed -    
Visibility 9 miles    
Events      
T = Trace of Precipitation, MM = Missing Value Source: NWS Daily Summary

Daily Weather History Graph

Daily Weather History Graph

Search for Another Location

Airport or City:

Trip Planner

Search our weather history database for the weather conditions in past years. The results will help you decide how hot, cold, wet, or windy it might be!

Date:

Astronomy

May. 24, 2013 Rise Set
Actual Time 5:52 AM CDT 8:19 PM CDT
Civil Twilight 5:22 AM CDT 8:49 PM CDT
Nautical Twilight 4:44 AM CDT 9:26 PM CDT
Astronomical Twilight 4:03 AM CDT 10:08 PM CDT
Moon 8:02 PM CDT (5/24) 5:23 AM CDT (5/24)
Length of Visible Light 15h 27m
Length of Day
14h 27m
Full, 100% of the Moon is Illuminated
May 24
Full
May 24
Full
May 31
Last Quarter
Jun 8
New
Jun 16
First Quarter

Hourly Weather History & Observations

Time (CDT) Temp. Dew Point Humidity Pressure Visibility Wind Dir Wind Speed Gust Speed Precip Events Conditions
12:58 AM 54.5 °F 54.0 °F 98% 30.23 in 10.0 mi NE 4.6 mph - N/A   Clear
1:58 AM 54.0 °F 53.6 °F 99% 30.24 in 10.0 mi East 5.8 mph - N/A   Clear
2:58 AM 53.6 °F 53.2 °F 99% 30.26 in 10.0 mi East 6.9 mph - N/A   Clear
3:58 AM 52.2 °F 52.2 °F 100% 30.27 in 10.0 mi ESE 3.5 mph - N/A   Clear
4:58 AM 50.4 °F 50.4 °F 100% 30.30 in 10.0 mi ESE 3.5 mph - N/A   Clear
5:38 AM 48.2 °F 48.2 °F 100% 30.31 in 0.8 mi SSE 2.3 mph - N/A   Clear
5:48 AM 48.2 °F 48.2 °F 100% 30.31 in 2.5 mi ESE 3.5 mph - N/A   Clear
5:53 AM 50.0 °F 50.0 °F 100% 30.31 in 9.0 mi ESE 2.3 mph - N/A   Clear
5:58 AM 48.9 °F 48.9 °F 100% 30.32 in 10.0 mi ESE 2.3 mph - N/A   Clear
6:58 AM 51.4 °F 51.4 °F 100% 30.35 in 10.0 mi East 3.5 mph - N/A   Clear
7:58 AM 53.6 °F 51.8 °F 94% 30.35 in 10.0 mi East 4.6 mph - N/A   Clear
8:58 AM 55.4 °F 48.6 °F 78% 30.40 in 10.0 mi ESE 5.8 mph - N/A   Partly Cloudy
9:58 AM 58.5 °F 44.8 °F 60% 30.38 in 10.0 mi East 8.1 mph - N/A   Clear
10:58 AM 61.7 °F 43.9 °F 52% 30.38 in 10.0 mi ENE 8.1 mph - N/A   Clear
11:58 AM 63.7 °F 41.0 °F 43% 30.37 in 10.0 mi East 8.1 mph - N/A   Clear
12:58 PM 66.2 °F 42.6 °F 42% 30.34 in 10.0 mi East 10.4 mph - N/A   Clear
1:58 PM 69.1 °F 40.6 °F 36% 30.32 in 10.0 mi ESE 10.4 mph - N/A   Clear
2:58 PM 71.1 °F 39.4 °F 32% 30.31 in 10.0 mi Variable 5.8 mph - N/A   Clear
3:58 PM 71.2 °F 37.2 °F 29% 30.29 in 10.0 mi SE 8.1 mph - N/A   Clear
4:58 PM 73.6 °F 36.3 °F 26% 30.27 in 10.0 mi SE 8.1 mph - N/A   Clear
5:58 PM 72.9 °F 35.6 °F 26% 30.25 in 10.0 mi SE 9.2 mph - N/A   Clear
6:58 PM 71.2 °F 36.9 °F 28% 30.23 in 10.0 mi East 9.2 mph - N/A   Clear
7:58 PM 66.7 °F 43.0 °F 42% 30.23 in 10.0 mi ESE 4.6 mph - N/A   Clear
8:58 PM 61.5 °F 41.4 °F 48% 30.25 in 10.0 mi ESE 4.6 mph - N/A   Clear
9:58 PM 57.2 °F 44.2 °F 62% 30.26 in 10.0 mi ESE 5.8 mph - N/A   Clear
10:58 PM 54.7 °F 43.9 °F 67% 30.27 in 10.0 mi SSE 4.6 mph - N/A   Clear
11:58 PM 53.1 °F 43.9 °F 71% 30.27 in 10.0 mi SE 5.8 mph - N/A   Clear